Time,TemperatureF,DewpointF,PressureIn,WindDirection,WindDirectionDegrees,WindSpeedMPH,WindSpeedGustMPH,Humidity,HourlyPrecipIn,Conditions,Clouds,dailyrainin,SoftwareType,DateUTC
2013-04-20 00:01:00,44.4,34.5,29.80,NW,314,1.0,9.0,68,0.00,,,0.00,Wunderground v.1.13,2013-04-20 04:01:00,
2013-04-20 00:02:00,44.3,34.4,29.79,NW,325,0.0,9.0,68,0.00,,,0.00,Wunderground v.1.13,2013-04-20 04:02:00,
2013-04-20 00:07:00,44.3,34.4,29.80,West,271,5.0,6.0,68,0.00,,,0.00,Wunderground v.1.13,2013-04-20 04:07:00,
2013-04-20 00:12:00,44.3,34.8,29.80,WNW,299,0.0,3.0,69,0.00,,,0.00,Wunderground v.1.13,2013-04-20 04:12:00,
2013-04-20 00:17:00,44.2,34.7,29.80,West,274,0.0,4.0,69,0.00,,,0.00,Wunderground v.1.13,2013-04-20 04:17:00,
2013-04-20 00:22:00,44.2,34.7,29.80,West,274,2.0,2.0,69,0.00,,,0.00,Wunderground v.1.13,2013-04-20 04:22:00,
2013-04-20 00:27:00,44.1,34.9,29.80,West,271,0.0,8.0,70,0.00,,,0.00,Wunderground v.1.13,2013-04-20 04:27:00,
2013-04-20 00:32:00,44.1,34.9,29.81,WSW,254,0.0,5.0,70,0.00,,,0.00,Wunderground v.1.13,2013-04-20 04:32:00,
2013-04-20 00:37:00,44.0,34.8,29.80,WSW,257,3.0,5.0,70,0.00,,,0.00,Wunderground v.1.13,2013-04-20 04:37:00,
2013-04-20 00:42:00,44.0,34.8,29.81,NW,306,9.0,9.0,70,0.00,,,0.00,Wunderground v.1.13,2013-04-20 04:42:00,
2013-04-20 00:47:00,44.0,34.5,29.81,WSW,245,1.0,9.0,69,0.00,,,0.00,Wunderground v.1.13,2013-04-20 04:47:00,
2013-04-20 00:52:00,43.9,34.4,29.81,WSW,238,0.0,6.0,69,0.00,,,0.00,Wunderground v.1.13,2013-04-20 04:52:00,
2013-04-20 00:57:00,43.9,34.0,29.81,WSW,237,0.0,4.0,68,0.00,,,0.00,Wunderground v.1.13,2013-04-20 04:57:00,
2013-04-20 01:03:00,43.9,34.0,29.81,WSW,243,0.0,4.0,68,0.00,,,0.00,Wunderground v.1.13,2013-04-20 05:03:00,
2013-04-20 01:09:00,43.8,34.3,29.82,WSW,252,1.0,4.0,69,0.00,,,0.00,Wunderground v.1.13,2013-04-20 05:09:00,
2013-04-20 01:14:00,43.8,34.3,29.82,WSW,245,0.0,3.0,69,0.00,,,0.00,Wunderground v.1.13,2013-04-20 05:14:00,
2013-04-20 01:20:00,43.7,33.8,29.82,WSW,248,7.0,7.0,68,0.00,,,0.00,Wunderground v.1.13,2013-04-20 05:20:00,
2013-04-20 01:26:00,43.5,33.6,29.83,SW,225,1.0,3.0,68,0.00,,,0.00,Wunderground v.1.13,2013-04-20 05:26:00,
2013-04-20 01:32:00,43.3,32.7,29.83,WSW,241,4.0,5.0,66,0.00,,,0.00,Wunderground v.1.13,2013-04-20 05:32:00,
2013-04-20 01:38:00,43.1,31.7,29.83,WSW,238,3.0,6.0,64,0.00,,,0.00,Wunderground v.1.13,2013-04-20 05:38:00,
2013-04-20 01:44:00,42.9,31.6,29.83,SW,219,0.0,10.0,64,0.00,,,0.00,Wunderground v.1.13,2013-04-20 05:44:00,